TimeMST,TemperatureF,Dew PointF,Humidity,Sea Level PressureIn,VisibilityMPH,Wind Direction,Wind SpeedMPH,Gust SpeedMPH,PrecipitationIn,Events,Conditions,WindDirDegrees,DateUTC
12:53 AM,30.9,19.9,64,29.78,10.0,WSW,9.2,-,N/A,,Clear,250,2013-02-17 07:53:00
1:53 AM,30.9,19.9,64,29.75,10.0,West,8.1,-,N/A,,Clear,260,2013-02-17 08:53:00
2:53 AM,28.9,19.0,67,29.73,10.0,WSW,8.1,-,N/A,,Clear,250,2013-02-17 09:53:00
3:53 AM,28.9,19.0,67,29.70,10.0,WSW,9.2,-,N/A,,Clear,250,2013-02-17 10:53:00
4:53 AM,30.0,18.0,61,29.70,10.0,WSW,8.1,-,N/A,,Clear,250,2013-02-17 11:53:00
5:53 AM,30.9,16.0,54,29.68,10.0,WSW,6.9,-,N/A,,Clear,250,2013-02-17 12:53:00
6:53 AM,30.9,16.0,54,29.65,10.0,West,6.9,-,N/A,,Clear,260,2013-02-17 13:53:00
7:53 AM,33.1,17.1,52,29.63,10.0,WSW,12.7,26.5,N/A,,Clear,250,2013-02-17 14:53:00
8:53 AM,35.1,16.0,46,29.61,10.0,WSW,12.7,23.0,N/A,,Clear,250,2013-02-17 15:53:00
9:53 AM,37.0,16.0,42,29.59,10.0,WSW,12.7,23.0,N/A,,Clear,250,2013-02-17 16:53:00
10:53 AM,41.0,16.0,36,29.57,10.0,WSW,15.0,28.8,N/A,,Clear,250,2013-02-17 17:53:00
11:53 AM,44.1,16.0,32,29.52,10.0,West,16.1,24.2,N/A,,Clear,270,2013-02-17 18:53:00
12:53 PM,42.1,18.0,38,29.52,10.0,WSW,11.5,20.7,N/A,,Clear,250,2013-02-17 19:53:00
1:53 PM,42.1,19.0,40,29.52,10.0,Variable,6.9,21.9,N/A,,Clear,0,2013-02-17 20:53:00
2:53 PM,39.9,21.0,47,29.55,10.0,West,16.1,25.3,N/A,,Clear,280,2013-02-17 21:53:00
3:53 PM,37.0,21.0,52,29.59,10.0,WNW,11.5,27.6,N/A,,Clear,290,2013-02-17 22:53:00
4:53 PM,32.0,18.0,56,29.64,10.0,NW,15.0,25.3,N/A,,Clear,310,2013-02-17 23:53:00
5:53 PM,28.0,17.1,63,29.69,10.0,NW,10.4,18.4,N/A,,Clear,310,2013-02-18 00:53:00
6:35 PM,28.4,17.6,64,29.63,10.0,Variable,6.9,25.3,N/A,,Mostly Cloudy,0,2013-02-18 01:35:00
6:45 PM,28.4,17.6,64,29.63,10.0,NW,8.1,18.4,N/A,,Scattered Clouds,310,2013-02-18 01:45:00
6:53 PM,28.0,18.0,66,29.70,10.0,West,8.1,-,N/A,,Scattered Clouds,270,2013-02-18 01:53:00
7:53 PM,28.0,19.0,69,29.70,10.0,WNW,11.5,24.2,N/A,,Scattered Clouds,290,2013-02-18 02:53:00
8:21 PM,28.4,19.4,69,29.65,10.0,Variable,5.8,-,N/A,,Mostly Cloudy,0,2013-02-18 03:21:00
8:53 PM,26.1,16.0,66,29.71,10.0,NW,9.2,19.6,N/A,,Mostly Cloudy,310,2013-02-18 03:53:00
9:03 PM,26.6,15.8,64,29.66,10.0,NW,10.4,19.6,N/A,,Scattered Clouds,310,2013-02-18 04:03:00
9:10 PM,26.6,15.8,64,29.66,10.0,NW,10.4,24.2,N/A,,Mostly Cloudy,320,2013-02-18 04:10:00
9:32 PM,26.6,15.8,64,29.65,10.0,NW,9.2,24.2,N/A,,Scattered Clouds,320,2013-02-18 04:32:00
9:53 PM,25.0,15.1,66,29.71,10.0,NNW,8.1,27.6,N/A,,Clear,330,2013-02-18 04:53:00
10:53 PM,25.0,14.0,63,29.70,10.0,WNW,9.2,-,N/A,,Clear,290,2013-02-18 05:53:00
11:53 PM,24.1,14.0,65,29.70,10.0,NW,6.9,17.3,N/A,,Clear,310,2013-02-18 06:53:00